Temp_Advection
nan nan nan nan nan nan nan nan nan nan nan nan nan nan nan nan nan nan nan nan nan nan nan nan nan nan nan nan nan nan nan nan nan nan nan nan nan nan nan nan nan nan nan nan nan nan nan nan nan nan nan nan nan nan nan nan nan nan nan nan nan nan nan nan nan nan nan nan nan
nan 0 0 0 0 0 -0 -1 -1 -1 -1 -1 -0 0 1 1 1 1 2 2 1 1 1 0 0 1 0 -0 -0 -1 -1 -1 -1 -1 -0 -0 0 0 1 1 1 0 -0 -0 -0 0 0 0 0 0 -0 0 0 1 1 1 1 1 1 1 1 1 1 1 1 1 1 1 nan
nan 0 0 0 -0 -1 -1 -1 -1 -1 -0 -0 0 0 1 1 2 2 2 1 1 1 1 0 -0 -0 -1 -1 -1 -1 -0 -0 -0 -0 -0 -0 -0 -0 1 1 0 0 -0 -0 -0 0 1 1 0 0 0 1 1 1 1 1 1 1 1 1 1 1 1 2 2 2 2 2 nan
nan 0 0 -0 -1 -2 -2 -1 -0 0 0 0 1 1 1 2 2 1 1 1 1 0 0 -0 -1 -1 -0 -0 -0 -0 0 0 -0 -0 -0 -1 -1 -0 -0 0 0 -0 -0 0 1 1 1 1 1 1 2 2 2 2 2 2 2 2 1 1 1 1 1 1 1 1 1 1 nan
nan -0 -1 -1 -1 -1 -1 0 1 1 1 1 1 1 2 2 2 1 1 0 0 -0 -0 -0 -0 -0 -0 -0 -0 -0 -0 -0 0 -0 -0 0 0 1 0 0 -0 -1 -0 1 1 1 1 1 1 2 2 2 2 2 2 1 1 1 1 1 1 1 1 1 1 1 1 1 nan
nan -0 -0 -1 -0 0 1 1 2 2 1 1 1 2 2 1 1 1 0 0 0 0 -0 0 0 -0 -0 -1 -1 -0 -0 0 1 1 0 0 0 0 0 -0 -0 0 1 1 1 1 1 1 1 1 1 1 1 1 1 1 1 1 1 1 1 1 1 1 1 1 1 1 nan
nan -0 -0 0 1 1 2 2 2 2 2 1 2 1 1 0 0 0 -0 0 0 0 0 -0 -0 -0 -0 -0 0 1 1 1 0 0 0 1 1 1 1 1 1 2 2 2 2 2 2 2 1 1 1 1 1 0 0 0 0 0 1 1 1 1 1 1 1 1 0 0 nan
nan -0 0 1 1 2 2 3 2 2 1 1 1 0 -0 -0 -0 -0 -0 0 0 1 1 0 0 0 1 1 1 1 1 1 1 1 1 1 1 1 2 2 2 2 2 2 2 2 2 1 1 1 0 0 0 0 0 0 0 0 0 0 0 0 0 0 0 0 0 0 nan
nan 0 1 1 2 2 2 2 1 1 0 -0 -0 -0 0 0 -0 0 0 1 1 1 1 1 1 1 1 1 1 1 1 1 1 1 1 1 1 1 1 1 0 0 0 0 0 0 0 0 0 0 -0 -0 -0 -0 -0 -0 -0 -0 -0 -0 -0 -0 -0 -0 -0 0 -0 -0 nan
nan 1 1 1 1 1 1 1 0 0 -0 -0 0 0 0 0 0 1 1 1 1 1 1 1 1 0 0 0 0 0 0 0 0 0 0 0 0 0 0 0 0 0 -0 -0 0 0 0 -0 -0 -0 -0 -0 -0 -0 -0 -0 -0 -0 -0 -0 -0 -0 -0 -0 -0 -0 -0 -0 nan
nan 2 1 1 1 0 0 0 0 0 0 0 1 1 1 1 1 1 1 1 1 1 0 0 0 0 0 0 0 0 0 0 0 0 0 0 0 0 0 0 0 0 0 -0 -0 -0 -0 -0 -0 -0 -0 -0 0 0 0 0 0 0 0 0 0 -0 -0 -0 -0 -0 -0 -0 nan
nan 1 1 0 0 0 0 0 0 0 0 1 1 1 1 1 1 1 1 0 0 0 0 0 -0 -0 -0 -0 -0 -0 0 0 0 0 0 0 0 0 0 0 0 0 0 0 0 0 0 0 0 0 0 0 0 0 0 0 0 0 0 0 0 -0 -0 -0 -0 -0 -0 -0 nan
nan 0 0 0 0 0 0 0 1 1 1 1 1 1 1 1 0 0 0 0 0 0 0 0 0 -0 0 0 0 0 -0 -0 -0 -0 -0 0 0 0 0 0 0 0 0 0 0 0 0 0 0 0 0 0 0 0 0 0 0 -0 -0 -0 -0 -1 -1 -1 -1 -1 -1 -0 nan
nan 0 0 1 1 1 1 1 1 1 1 1 1 0 0 0 0 0 0 0 0 0 0 0 0 0 -0 -0 -0 -0 -0 -0 -0 0 0 1 1 1 1 0 0 0 0 0 0 0 0 0 0 0 0 0 0 -0 -0 -0 -1 -1 -1 -0 -0 -0 -0 -0 -0 0 0 0 nan
nan 1 1 1 1 1 1 1 1 1 1 0 0 0 0 -0 -0 0 0 0 0 0 0 -0 -0 -0 -0 -0 -0 0 0 0 1 1 1 1 0 0 0 0 0 0 0 0 0 0 0 0 0 0 0 0 0 0 0 0 0 0 1 1 1 1 1 0 0 0 0 -0 nan
nan 1 1 1 1 1 1 1 1 1 0 0 0 0 0 0 -0 0 0 -0 -0 -0 -0 -0 -0 -0 0 0 0 0 0 0 0 0 0 0 -0 -0 -0 -0 -0 -0 -0 -0 -0 -0 -0 -0 -0 -0 0 0 1 1 1 1 1 1 1 1 0 0 0 0 -0 -0 -0 -0 nan
nan 1 1 1 1 1 1 0 0 0 0 0 0 0 0 0 -0 -0 -0 -0 -0 -0 0 0 0 0 0 0 0 0 0 0 -0 -0 -0 -0 -0 -0 -0 -0 -0 -0 -0 -0 -0 -0 -0 -0 -0 -0 -0 -0 0 0 0 0 0 0 0 0 0 0 0 0 0 0 0 0 nan
nan 1 1 1 1 0 0 0 0 0 0 0 0 -0 -0 -0 -0 -0 0 0 0 0 0 0 0 0 0 0 0 -0 -0 -0 -0 -0 -0 -0 -0 -0 -0 -0 -0 -0 -0 -0 -0 0 0 0 -0 -0 -0 -0 -0 -0 -0 -0 0 0 0 0 1 1 1 0 0 0 0 -0 nan
nan 0 1 1 1 1 0 0 0 0 -0 -1 -1 -0 -0 0 0 0 0 0 0 0 0 0 0 0 0 0 0 0 0 -0 -0 -0 -0 -0 -0 -0 -0 -0 -0 -0 -0 -0 -0 -0 -0 0 0 0 0 -0 -0 -0 -0 -0 -0 -0 0 0 1 1 0 0 0 -0 -0 0 nan
nan 1 1 1 0 0 0 -0 -0 -1 -1 -0 0 0 0 0 0 0 0 0 0 0 0 0 0 0 0 0 0 0 -0 -0 -0 -0 -0 -0 -0 -0 -0 -0 -0 -0 -0 -0 -0 -0 -0 -0 -0 -0 -0 -0 -0 -0 -0 -0 -0 -0 0 0 0 0 0 0 0 0 0 0 nan
nan 1 0 0 -0 -0 -0 -1 -0 -0 1 1 0 0 0 0 0 0 0 0 0 0 0 0 0 0 0 0 -0 -0 -0 -0 -0 -0 -0 -0 -0 -0 -0 -0 -0 -0 -0 -0 -0 -0 -0 -0 -0 -0 -0 -0 -0 -0 -0 0 0 0 0 0 0 0 0 0 0 0 0 0 nan
nan 0 0 -0 -0 -0 -0 -0 0 0 0 0 0 0 0 0 0 0 0 0 0 0 0 0 0 0 -0 -0 -0 -0 -0 -0 -0 -0 -0 -0 -0 -0 -0 -0 -0 -0 -0 -0 -0 -0 -0 -0 -0 -0 -0 -0 0 0 0 0 0 0 0 0 0 0 0 0 0 0 0 0 nan
nan 0 0 0 0 0 -0 0 0 0 0 0 0 0 0 0 0 0 0 0 0 0 -0 -0 -0 -0 -0 -0 -0 -0 -0 -0 -0 -0 -0 -0 -0 -0 -0 -0 -0 -0 -0 -0 -0 -0 -0 -0 -0 -0 -0 -0 -0 0 0 0 0 0 0 0 0 -0 -0 -0 -0 -0 -0 -0 nan
nan 0 -0 -0 -0 -0 -0 0 0 0 0 0 0 0 0 0 0 -0 -0 -0 -0 -0 -0 -0 -0 -0 -0 -0 -0 -0 -0 -0 -0 -0 -0 -0 -0 -0 -0 -0 -0 -0 -0 -0 -0 -0 -0 -0 -0 -0 -0 -0 -0 -0 -0 -0 -0 -0 -0 -0 -0 -0 -0 -0 -0 -0 -0 -0 nan
nan 0 -0 -0 -0 -0 0 0 0 0 0 0 0 0 0 -0 -0 -0 -0 -0 -0 -0 -0 -0 -0 -0 -0 -0 -0 -0 -0 -0 -0 -0 -0 -0 -0 -0 -0 -0 -0 -0 -0 -0 -0 -0 -0 -0 -0 -0 -0 -0 -0 -0 -0 -0 -0 -1 -1 -0 -0 -0 -0 -0 0 0 -0 -0 nan
nan 0 -0 -0 -0 0 0 0 0 0 0 0 0 0 -0 -0 -0 -0 -0 -0 -0 -0 -0 -0 -0 -0 -0 -0 -0 -0 -0 -0 -0 -0 -0 -0 -0 -0 -0 -0 -0 -0 -0 -0 -0 -0 -0 -0 -0 -0 -0 -0 -0 -0 -0 -0 -0 -0 -0 -0 -0 -0 -0 -0 0 0 0 0 nan
nan -0 -0 -0 0 0 0 0 0 0 0 0 0 -0 -0 -0 -0 -0 0 0 -0 -0 -0 0 0 0 0 -0 -0 -0 -0 -0 -0 -0 -0 -0 -0 -0 -0 -0 -0 -0 -0 -0 -0 -0 -0 -0 -0 -0 -0 -0 -0 -0 -0 -0 -0 -0 -0 -0 -0 -0 -0 -0 -0 0 0 0 nan
nan -0 -0 0 0 0 0 0 0 0 0 0 0 -0 -0 -0 -0 -0 -0 -0 0 0 0 0 -0 -0 -0 -0 -0 -0 -0 -0 -0 -0 -0 -0 -0 -0 -1 -1 -1 -1 -0 -0 -0 -0 -0 -0 -0 -0 -0 -0 -0 -0 -0 -0 -0 -0 -0 -0 -1 -1 -1 -1 -1 -1 -0 -0 nan
nan 0 0 0 0 0 0 0 0 0 -0 -0 -0 -0 -0 -0 -0 -0 -0 -0 -0 -0 -0 -0 -0 -0 -0 -0 -0 -0 -0 -0 -0 -0 -0 -0 -0 -0 -0 -0 -0 -0 -0 -0 -0 -0 -0 -0 -0 -0 -0 -0 -0 -0 -0 -0 -0 -0 -0 -0 -0 -1 -1 -1 -1 -1 -1 -1 nan
nan 0 0 0 0 0 0 0 -0 -0 -0 -0 -0 -0 -0 -0 -0 -0 -0 -0 -0 -0 -0 -0 -0 -0 -0 -0 -0 -0 -0 -0 -0 -0 -0 -0 -0 -0 -0 -0 -0 -0 -0 -0 -0 -0 -0 -0 -0 -0 -0 -0 -0 -0 -0 -0 -0 -0 -0 -0 -0 -0 -0 -0 -1 -1 -1 -1 nan
nan 0 0 0 0 0 -0 -0 -0 -0 -0 -0 -0 -0 -0 -0 -0 -0 -0 -0 -0 -0 -0 -1 -0 -0 -0 -0 -0 -0 -0 -0 -0 -0 -0 -0 -0 -0 -0 -0 -0 -0 -0 0 -0 -0 -0 -0 -0 -0 -0 -0 -0 -0 -0 -0 -0 -0 -0 -0 0 0 0 0 -0 -0 -0 -1 nan
nan 0 0 0 -0 -0 -0 -0 -0 -0 -0 -0 -0 -0 -0 -0 -0 -0 -0 -0 -0 -0 -0 -0 -0 -0 -0 -0 -0 -0 -0 -0 -0 -0 -0 -0 -0 -0 -0 -0 -0 -0 -0 -0 0 0 -0 -0 -0 -0 -0 -0 -0 -0 -0 -0 -0 -0 -0 -0 0 0 0 0 0 0 0 0 nan
nan -0 -0 -0 -0 -0 -0 -0 -0 -0 -0 -0 -0 -0 -0 -0 -0 -0 -0 -0 -0 -0 -0 -0 -0 -0 -0 -0 -0 -0 -0 -0 -0 -0 -0 -0 -0 -0 -0 -0 -0 -0 -0 -0 -0 0 0 0 0 -0 -0 -0 -0 -0 -0 -0 -0 -0 -0 -0 -0 -0 0 0 0 0 -0 -0 nan
nan -0 -0 -0 -0 -0 -0 -0 -0 -0 -0 -0 -0 -0 -0 -0 -0 -0 -0 -0 -0 -0 -0 -0 -0 -0 -0 -0 -0 -0 -0 -0 -0 -0 -0 -0 -0 -0 -0 -0 -0 -0 -1 -1 -0 -0 0 0 0 0 0 0 -0 -0 -0 -0 -0 -0 -0 -0 -0 -0 -0 -0 -0 -0 -0 -0 nan
nan -0 -0 -0 -0 -0 -0 -0 -0 -0 -0 -0 -0 -0 -0 -0 -0 -0 -0 -0 -0 -0 -0 -0 -0 -0 -0 -0 -0 -0 -1 -0 -0 -0 -0 -0 -0 -0 -0 -0 0 -0 -0 -0 -0 -0 -0 -0 0 0 -0 -0 -0 -0 -0 -0 -0 -0 -0 -0 -0 -0 -0 -0 -0 -0 -0 -0 nan
nan -0 -0 -0 -0 -0 -0 -0 -0 -0 -0 -0 -0 -0 -0 -0 -0 -0 -0 -0 -0 -0 -0 -0 -0 -0 -0 -0 -0 -0 -0 -0 -0 -0 -0 -0 -0 -0 -0 -0 0 0 0 -0 -0 -0 -0 -0 -0 -0 -0 -0 -0 -0 -0 -0 -0 -0 -0 -0 -0 -0 -0 -0 -0 0 0 0 nan
nan -0 -0 -0 -0 -0 0 0 0 -0 -0 -0 -0 -0 -0 -0 -1 -1 -1 -1 -1 -0 -0 -0 -0 -0 -0 -0 -0 -0 0 -0 -0 -0 -0 -0 -0 -0 -0 -0 -0 0 0 0 -0 -0 -0 -0 -0 -0 -0 -0 -0 -0 -0 -0 -0 -0 -0 -0 -0 -0 -0 0 0 0 0 0 nan
nan -0 -0 0 0 0 0 -0 -0 -0 -0 -0 -0 -1 -1 -1 -1 -1 -1 -1 -1 -1 -0 -0 -0 -0 -0 -0 -0 0 0 0 -0 -0 -0 -0 -0 -0 -1 -1 -0 -0 -0 -0 -0 -0 -0 -0 -0 -0 -0 -0 -0 -0 -0 -0 0 0 0 -0 -0 -0 0 0 0 0 0 0 nan
nan -0 0 0 0 -0 -0 -0 -0 -0 -1 -1 -1 -1 -1 -0 -0 -0 -0 -0 -1 -1 -1 -0 -1 -0 -0 -1 -1 -0 -0 -0 -0 -0 -1 -0 -0 -1 -1 -1 -1 -0 -0 -0 -0 -0 -0 -0 -0 -0 -0 -0 -0 -0 -0 -0 -0 0 0 0 -0 -0 -0 -0 0 0 0 0 nan
nan -0 -0 -0 -0 -0 -0 -1 -1 -1 -1 -1 -1 -1 -1 -1 -0 -0 -1 -1 -1 -1 -1 -1 -1 -1 -1 -1 -1 -1 -1 -1 -0 -1 -1 -1 -1 -1 -1 -1 -1 -1 -0 -0 -0 -0 -0 -0 0 0 0 0 0 0 0 -0 -0 -0 0 0 0 -0 -0 -0 -0 -0 0 0 nan
nan nan nan nan nan nan nan nan nan nan nan nan nan nan nan nan nan nan nan nan nan nan nan nan nan nan nan nan nan nan nan nan nan nan nan nan nan nan nan nan nan nan nan nan nan nan nan nan nan nan nan nan nan nan nan nan nan nan nan nan nan nan nan nan nan nan nan nan nan
Wind_Speed
21 20 20 19 19 19 20 20 21 21 21 21 20 20 20 20 21 21 22 22 22 22 22 22 23 23 24 24 24 24 24 24 25 25 25 26 26 26 26 26 26 25 25 26 28 29 29 28 28 29 30 30 30 30 30 29 29 29 30 32 33 33 31 30 29 28 28 27 27
21 21 21 20 20 21 21 21 21 22 22 22 22 22 22 22 22 23 23 23 23 23 23 23 23 24 25 25 24 24 24 25 26 26 27 27 28 28 27 26 25 24 25 27 27 27 26 26 27 28 29 28 28 27 26 25 25 24 25 25 25 26 26 26 26 25 23 22 22
24 24 23 22 21 21 21 21 22 23 23 24 23 23 23 23 23 23 23 23 22 22 22 23 24 25 25 24 24 24 24 26 27 28 29 30 30 30 30 29 27 26 27 29 29 28 27 27 28 28 28 27 26 24 22 21 21 21 20 20 19 19 19 19 18 18 17 16 17
26 25 24 23 22 22 22 23 24 24 24 24 24 23 23 23 23 22 21 20 20 21 22 23 24 23 23 23 23 24 26 27 29 30 31 32 32 33 32 31 29 28 28 29 26 25 24 24 24 24 23 22 22 21 19 17 17 17 17 17 16 16 15 15 15 14 14 13 13
27 26 26 25 24 24 24 24 25 25 25 24 23 22 22 22 21 19 18 18 19 21 22 23 23 22 23 23 24 26 27 28 28 27 27 26 25 23 20 20 20 23 26 25 24 23 22 22 21 20 20 19 19 18 16 14 14 14 15 16 16 16 15 15 14 13 12 11 9
26 27 27 26 26 26 25 25 25 25 24 23 22 21 20 19 17 16 16 18 20 21 22 22 23 23 24 25 25 26 27 28 25 22 19 18 18 17 17 17 18 21 24 25 25 25 24 23 23 22 21 19 17 15 14 13 12 13 13 14 15 15 14 13 12 10 8 5 4
26 27 27 27 27 26 26 25 24 23 22 21 19 18 17 16 16 17 18 20 21 22 23 23 23 23 23 23 23 23 22 22 21 19 17 17 16 17 18 19 21 23 24 25 25 24 23 22 22 21 19 17 15 13 12 11 11 10 10 10 10 10 10 9 7 5 3 2 4
26 27 27 27 26 25 24 23 22 20 18 17 16 15 15 16 17 19 21 22 23 22 21 19 18 17 16 16 15 15 15 15 15 15 15 15 16 17 19 20 20 20 19 19 18 17 16 16 15 14 12 10 8 7 7 6 5 5 5 4 4 4 4 4 3 2 2 3 5
27 26 26 25 24 23 21 20 18 16 15 14 13 14 16 18 19 20 21 20 19 17 14 13 11 11 11 11 12 13 13 14 14 14 14 14 14 13 13 12 12 11 10 9 9 8 8 7 6 5 5 4 3 3 3 2 2 2 2 2 2 2 2 2 3 4 5 6 7
26 25 24 22 20 19 17 16 14 13 13 13 14 15 17 18 18 17 16 15 13 12 12 12 12 12 12 12 13 13 13 12 12 12 11 10 9 8 7 6 5 5 4 4 4 3 3 2 2 2 2 2 3 4 4 4 4 5 5 6 6 6 6 6 7 7 8 9 10
24 22 20 18 16 15 14 13 12 12 12 13 15 16 16 15 14 13 13 12 13 14 14 13 13 13 12 12 11 10 10 9 9 8 8 7 6 5 5 4 3 3 3 3 3 3 3 3 3 3 3 3 4 4 5 5 6 7 8 9 10 10 11 11 12 12 13 13 14
19 17 15 14 12 12 12 12 12 13 14 15 15 15 15 15 15 15 15 15 15 15 14 13 12 11 10 9 8 7 7 6 6 5 5 5 4 4 3 3 3 3 4 5 5 6 6 6 6 6 6 6 7 7 8 9 10 11 12 13 14 15 16 16 16 17 17 17 18
14 13 12 11 11 11 12 12 13 14 15 16 17 17 17 17 17 16 16 15 14 12 11 10 9 8 7 6 5 5 5 5 6 7 7 7 7 7 7 6 6 7 8 9 9 10 11 11 11 11 11 11 12 12 13 14 15 16 17 18 19 19 19 19 19 19 19 19 19
12 12 13 13 14 15 15 16 16 17 18 19 19 19 18 17 16 15 14 13 11 10 8 7 6 6 6 6 7 8 8 9 10 10 10 10 10 9 9 8 8 9 9 10 10 11 12 13 14 15 15 15 16 17 17 18 19 19 19 20 20 20 19 19 19 18 18 18 18
15 16 17 19 19 20 20 20 21 21 21 21 20 18 17 15 14 12 11 10 9 8 7 7 8 9 9 9 10 10 10 10 10 9 9 8 8 7 7 7 6 6 7 7 7 8 9 10 12 13 14 16 17 17 18 18 18 18 17 17 17 17 17 17 16 17 17 18 19
23 24 24 24 24 23 23 23 22 22 21 19 18 17 15 13 11 10 9 8 8 9 9 10 10 9 9 8 8 7 7 7 6 6 5 5 5 4 4 4 4 4 4 4 4 4 4 5 6 7 9 10 12 13 14 15 14 14 15 15 15 15 16 16 17 17 18 19 20
28 28 27 26 24 23 22 21 20 19 18 16 15 13 12 10 9 9 10 10 10 10 9 8 7 6 5 5 4 4 4 4 3 3 3 3 3 3 3 3 3 3 3 3 3 3 3 3 3 4 5 5 7 8 10 12 13 14 15 16 17 17 17 18 18 18 19 20 20
28 27 25 24 23 21 20 19 17 16 15 13 12 12 11 11 11 11 11 10 10 9 7 7 6 5 5 4 3 3 3 2 2 2 2 2 2 2 3 3 3 4 4 4 5 5 5 6 6 6 6 7 8 9 10 12 14 15 16 18 18 19 19 19 19 19 19 20 20
25 24 23 22 21 20 19 18 17 16 15 14 13 13 13 13 13 12 12 11 10 9 8 7 6 5 4 3 3 2 1 1 1 1 1 2 3 3 4 4 5 5 6 6 7 7 8 9 9 9 10 10 11 11 12 13 14 15 17 18 18 18 18 18 18 19 19 19 20
23 22 22 21 20 20 19 18 18 17 16 15 15 14 14 14 13 12 12 10 9 8 7 6 5 4 3 2 1 1 0 1 2 2 3 4 5 5 6 6 7 7 8 9 9 10 10 11 11 12 12 13 13 13 14 14 15 15 16 17 17 17 17 17 18 18 18 19 19
23 22 22 21 20 20 19 19 18 17 16 15 15 14 13 12 11 10 9 8 7 6 5 4 3 2 1 1 0 1 2 3 4 4 5 6 7 7 8 8 9 9 10 10 11 11 12 12 12 13 13 13 13 14 14 14 15 15 15 16 16 16 17 17 18 18 19 19 19
23 22 21 21 20 19 18 18 17 16 15 14 13 11 10 9 8 8 7 6 5 4 3 2 1 1 1 1 2 3 4 5 5 6 7 8 8 9 9 10 10 10 11 11 11 12 12 12 13 13 13 14 14 14 14 14 15 15 15 16 16 17 18 18 19 19 19 20 20
22 21 20 19 18 18 17 16 15 14 13 11 10 9 8 7 6 5 5 4 3 2 2 2 2 2 3 4 4 5 5 6 7 7 8 8 9 9 10 10 11 11 11 11 12 12 12 13 13 14 14 14 15 15 15 16 16 16 17 17 18 18 19 19 20 20 21 21 22
20 19 18 17 16 15 14 13 12 11 10 9 8 7 6 5 5 4 4 3 3 3 3 3 4 4 5 5 6 6 7 7 8 8 8 9 9 10 10 11 11 11 12 12 13 13 14 14 14 15 15 15 16 16 17 17 18 18 19 19 19 20 20 20 21 22 22 23 23
18 16 15 14 14 13 12 11 11 10 9 8 7 6 5 4 4 4 3 3 3 4 4 4 5 5 5 6 6 7 7 8 8 9 9 10 10 11 11 12 12 13 13 14 14 14 15 15 15 16 16 16 17 17 18 18 19 19 20 20 21 21 21 21 22 22 23 23 24
15 14 13 13 12 11 10 10 9 8 7 6 5 4 4 3 3 3 3 3 4 4 4 5 5 6 6 7 7 8 9 9 10 10 11 11 12 12 13 13 13 14 14 14 15 15 16 16 17 17 17 17 18 18 19 19 20 20 21 22 22 22 23 23 23 23 23 24 24
14 13 12 11 10 9 9 8 7 6 6 5 4 3 3 3 3 3 3 4 4 5 5 6 6 7 8 8 9 9 10 11 11 11 12 12 13 14 14 14 15 15 15 15 16 16 17 17 18 18 18 19 19 19 20 20 21 21 22 23 23 24 24 24 24 24 24 24 25
13 11 10 9 8 8 7 6 6 5 4 4 3 3 3 3 3 4 4 5 6 6 7 7 8 9 9 10 10 11 11 12 12 12 13 13 14 14 15 15 15 16 16 16 16 17 17 18 18 19 19 20 20 21 21 22 22 23 23 24 24 25 25 25 25 25 25 25 25
12 10 9 8 7 7 6 5 5 4 4 4 3 4 4 4 5 5 6 6 7 7 8 9 9 10 10 11 11 11 12 12 13 13 13 14 14 14 15 15 16 16 17 17 17 18 18 19 19 20 20 21 21 22 22 23 23 24 24 25 25 25 25 26 26 26 26 26 26
11 9 8 7 7 6 5 5 5 5 4 4 5 5 5 6 6 7 7 8 8 9 9 10 10 11 11 11 12 12 13 13 13 14 14 14 15 15 15 16 16 17 17 18 18 19 20 20 21 21 22 22 22 23 23 24 24 25 25 25 25 25 26 26 26 27 27 27 27
10 9 8 7 7 6 6 6 6 5 6 6 6 6 7 7 8 8 8 9 9 10 10 11 11 11 12 12 13 13 14 14 14 15 15 15 16 16 17 17 18 18 18 19 19 20 21 21 22 23 23 24 24 24 25 25 25 26 26 26 26 26 26 27 27 27 27 28 28
9 9 8 7 7 7 7 7 7 7 7 7 7 7 8 8 9 9 10 10 10 11 11 11 12 12 13 13 14 14 15 15 16 16 17 17 17 18 18 19 19 20 20 20 21 21 22 23 24 24 25 25 26 26 26 26 27 27 27 28 28 28 28 28 28 28 28 28 28
9 9 8 8 8 8 8 8 8 8 8 8 8 8 9 9 10 10 10 11 11 12 12 12 13 13 14 14 15 16 16 17 17 18 18 19 19 20 21 21 22 22 23 23 23 23 24 24 25 26 26 27 27 28 28 28 28 28 29 29 29 29 29 29 29 29 28 28 28
10 9 9 9 9 9 8 8 9 9 9 9 9 9 10 10 10 11 11 12 12 13 13 14 14 15 16 16 17 18 18 19 20 20 21 21 22 22 23 23 24 25 25 25 26 26 26 26 27 27 28 28 28 29 29 29 29 29 29 29 30 30 29 29 28 27 27 26 26
10 10 9 9 9 9 9 9 9 9 9 9 9 10 10 11 11 12 12 13 14 15 15 16 17 17 18 19 19 20 21 21 22 23 23 24 24 24 25 25 25 26 26 27 27 27 27 28 28 28 29 29 29 29 30 30 30 30 30 29 29 29 28 27 26 24 24 23 22
10 10 9 9 9 9 9 9 9 9 10 10 11 11 12 13 14 14 15 15 16 17 18 18 19 20 20 21 21 22 23 23 24 25 25 25 26 26 26 26 26 27 27 27 27 28 28 28 28 29 29 29 29 30 30 30 30 29 29 28 27 26 24 23 21 20 20 20 20
10 10 9 9 9 9 9 10 10 10 11 12 13 14 15 16 16 17 18 18 19 20 20 21 21 22 22 23 23 24 24 25 25 26 26 26 27 27 27 27 27 27 27 27 27 27 28 28 28 28 29 29 29 29 29 29 29 28 27 25 24 23 21 20 19 19 20 20 21
10 10 10 10 10 10 11 11 12 13 14 15 16 17 18 18 19 20 21 21 22 22 22 23 23 23 24 24 25 25 25 25 26 26 26 27 27 27 27 27 27 27 27 27 27 27 27 27 28 28 28 29 29 29 28 28 27 26 25 24 23 22 21 20 20 20 21 21 22
10 10 11 11 12 12 13 14 15 16 17 18 19 19 20 21 21 22 22 23 23 24 24 24 25 25 25 25 26 26 26 26 26 26 26 27 27 27 27 27 27 27 27 27 27 27 27 27 28 28 28 28 28 28 27 26 25 25 24 24 23 22 21 20 20 20 20 20 21
11 12 13 14 15 16 17 18 19 19 20 20 21 21 22 22 23 23 23 24 24 25 25 25 25 26 26 26 26 26 26 26 26 26 26 27 27 27 27 27 28 27 27 27 27 27 27 27 28 28 28 28 28 27 26 25 25 24 24 23 22 22 21 20 19 20 20 20 20
14 15 16 17 18 19 20 20 20 21 22 22 22 23 23 23 24 24 24 25 25 25 26 26 26 26 26 27 27 27 27 27 27 27 27 27 27 28 28 28 28 28 28 28 27 27 27 27 27 27 27 27 27 26 25 25 24 24 23 22 21 20 20 20 20 20 20 20 20
Wind_Direction
196 196 198 199 200 201 204 209 213 216 219 221 224 227 230 231 230 228 227 228 231 235 240 244 247 251 254 256 258 260 261 262 263 263 264 264 263 262 261 260 259 259 260 261 259 255 251 245 240 238 238 240 240 239 237 233 227 223 221 221 221 223 227 232 236 238 238 236 234
194 196 196 196 197 200 204 210 216 221 224 226 229 232 234 236 236 236 235 234 235 237 241 246 250 254 256 258 259 260 262 264 267 268 270 270 270 269 267 265 264 264 263 260 254 247 241 234 230 230 231 232 232 230 228 224 221 218 215 214 214 216 220 224 227 228 225 220 218
194 195 196 197 199 203 208 213 219 224 227 230 233 236 239 240 241 241 241 242 244 246 249 251 254 257 259 262 264 267 269 271 273 275 275 275 275 273 272 270 268 267 264 259 250 241 232 226 224 225 226 225 222 216 212 211 211 210 208 204 202 201 201 203 204 204 202 200 201
196 196 197 199 202 207 212 217 222 226 230 234 237 240 243 244 245 245 247 250 253 256 258 260 262 264 267 270 273 274 275 276 276 275 274 273 272 271 269 267 264 261 258 250 238 225 217 213 212 212 210 206 201 195 190 187 189 192 193 192 189 186 184 184 186 189 192 196 200
198 198 198 201 205 209 214 219 223 228 232 236 239 242 245 247 248 250 252 255 258 261 264 267 270 273 275 276 276 276 274 273 270 268 266 264 261 257 252 248 243 242 239 227 211 199 192 190 187 184 179 175 174 172 170 169 171 176 180 184 186 187 187 189 191 196 202 209 216
200 201 202 204 207 211 216 220 224 228 232 236 239 243 246 251 256 259 261 262 264 268 271 273 274 275 275 274 272 270 268 265 260 256 252 248 243 235 227 218 211 211 209 202 194 188 184 181 177 172 168 165 162 162 164 166 170 174 178 182 187 191 196 200 204 209 216 229 253
201 203 205 207 210 214 218 222 226 229 233 236 241 246 253 261 265 267 268 269 269 271 272 272 270 268 266 265 262 258 254 249 242 240 237 228 218 205 198 198 189 184 185 185 184 183 181 178 174 170 167 164 160 160 163 168 171 173 176 179 184 190 197 203 209 215 232 278 297
202 205 208 210 213 216 220 224 227 230 234 239 245 253 260 265 264 264 265 265 265 264 262 260 256 252 248 243 237 229 219 211 204 202 198 188 177 169 164 163 163 163 165 168 170 171 171 170 167 164 160 156 152 152 155 161 162 163 164 165 170 181 191 202 216 234 258 268 269
204 207 211 214 216 218 221 225 228 232 236 241 248 253 256 256 256 255 255 254 251 245 237 227 218 210 201 193 186 180 174 168 163 160 158 155 151 148 146 145 143 142 142 144 146 149 152 153 151 146 137 124 108 94 84 71 55 39 22 6 355 339 317 299 292 283 275 270 266
207 210 212 214 216 217 220 223 228 234 238 242 246 247 246 244 242 239 235 228 217 203 188 177 169 162 158 156 154 152 150 147 143 140 139 139 137 135 130 125 116 106 99 95 95 96 97 95 86 77 67 55 43 33 25 16 6 357 349 342 336 330 323 316 308 300 294 289 286
208 210 212 212 213 215 218 223 227 232 234 235 234 231 226 218 210 202 192 181 170 161 156 152 148 144 141 139 137 134 132 129 126 123 121 120 120 118 113 103 87 67 48 34 25 18 12 6 1 357 353 348 346 347 346 343 341 340 338 336 333 329 325 321 317 312 309 306 304
206 207 208 208 209 212 216 219 220 221 219 215 209 201 190 178 168 161 155 151 147 145 143 142 139 136 134 131 126 121 113 106 98 90 83 77 72 65 56 44 23 360 345 336 330 327 324 321 319 317 317 317 319 322 326 329 330 333 334 334 333 331 329 326 323 320 317 315 312
200 200 199 198 199 200 201 201 199 197 192 185 176 166 158 151 147 143 141 141 140 140 138 136 134 129 123 113 101 85 69 56 47 39 33 28 23 17 9 356 342 330 324 320 318 317 316 314 313 313 314 316 319 323 327 330 332 333 334 334 333 331 329 326 323 320 317 314 309
186 185 182 179 177 176 175 173 171 168 163 157 152 149 145 141 139 137 136 136 136 134 128 120 107 91 73 58 47 39 33 28 25 22 20 18 16 10 1 350 341 334 330 327 326 325 324 323 321 321 321 324 326 330 333 335 336 335 333 331 328 326 322 319 315 310 305 298 290
165 161 158 157 156 156 155 153 152 150 147 144 142 142 141 139 136 133 131 126 119 107 91 74 61 52 44 38 34 30 26 23 22 19 18 15 12 6 359 352 346 342 339 338 336 335 334 333 332 330 329 330 332 334 335 335 333 329 324 319 314 309 305 300 294 288 281 275 270
145 142 141 141 141 142 142 141 141 141 140 138 137 136 136 134 128 120 108 95 81 70 61 56 51 47 43 41 38 36 32 29 25 21 18 14 9 3 357 352 348 343 339 336 334 334 335 335 333 330 328 327 327 327 325 321 314 307 299 293 288 285 281 277 274 272 270 269 269
134 133 133 133 133 133 133 133 133 133 133 132 129 126 121 113 102 91 82 75 71 68 67 68 69 70 68 65 60 56 52 46 39 32 24 16 8 360 351 344 338 330 323 316 310 306 303 299 295 291 289 290 289 293 293 290 285 281 278 275 274 274 274 274 274 274 275 276 277
128 127 127 127 127 127 126 124 123 121 118 114 108 101 95 91 87 87 87 90 93 97 101 104 104 105 104 100 93 85 76 67 55 39 17 360 347 338 329 321 316 310 305 299 294 291 289 287 285 281 277 271 267 266 268 269 270 271 273 274 276 278 279 280 280 281 281 281 281
122 121 120 119 118 116 114 111 106 102 98 94 93 94 97 100 103 107 110 112 114 116 118 119 119 117 116 114 110 106 98 80 26 339 322 316 313 309 306 304 302 301 299 296 294 292 291 291 291 290 288 286 282 279 277 276 275 275 276 278 280 282 283 283 283 283 283 282 281
112 110 108 106 105 103 100 97 95 94 95 99 105 110 114 116 118 119 120 119 119 119 120 122 123 124 124 124 123 121 313 308 309 308 307 307 306 305 304 304 303 302 301 300 299 298 297 296 295 294 293 293 292 290 289 287 285 283 282 282 282 283 283 283 283 282 282 281 281
100 98 97 96 95 95 95 96 99 104 110 116 120 121 121 119 119 119 118 117 117 119 121 123 125 127 128 129 296 303 308 308 310 310 309 309 308 307 307 307 306 306 305 304 302 301 300 299 298 297 295 294 293 292 291 289 288 286 285 284 284 283 283 282 282 282 282 282 282
93 93 93 94 96 99 102 107 113 117 121 121 120 117 115 114 113 112 111 110 110 110 109 108 103 68 347 325 319 317 315 315 314 313 312 311 310 309 308 307 307 306 304 303 302 301 300 299 298 296 295 293 292 290 289 288 287 286 286 286 286 286 286 286 286 286 286 286 287
95 96 98 101 104 108 112 115 116 116 114 111 109 107 106 105 102 99 96 91 85 73 57 29 3 347 337 332 328 325 322 320 318 315 313 311 310 308 307 306 306 304 303 302 301 301 299 298 297 296 295 294 293 292 291 291 290 290 290 290 291 292 292 293 293 293 293 293 293
101 103 104 106 108 109 109 107 105 103 101 99 97 95 93 89 84 76 67 54 39 23 9 356 348 341 337 333 329 326 323 320 317 314 312 310 309 308 307 307 306 305 304 303 302 301 300 300 299 299 298 298 298 298 298 298 298 297 297 297 297 297 297 297 297 297 297 296 296
103 104 103 103 101 99 97 96 94 93 92 90 87 84 78 71 62 51 39 25 12 1 353 347 342 338 334 331 327 324 320 318 315 314 313 311 310 310 309 309 308 308 307 307 306 305 304 303 303 303 303 303 303 303 303 302 302 301 300 300 299 298 297 297 297 296 296 296 296
101 99 97 95 93 92 91 91 90 88 87 84 81 75 67 57 45 33 19 8 356 347 343 339 336 333 330 328 325 322 319 317 316 315 315 314 313 312 311 311 311 310 310 310 309 308 308 307 306 306 305 305 304 303 303 302 301 300 299 298 297 296 295 295 294 294 293 293 293
98 95 93 91 91 90 90 88 88 86 84 81 75 66 54 40 25 11 360 350 344 340 336 333 331 329 327 324 322 320 319 318 317 317 316 316 315 315 314 313 312 312 311 311 310 309 309 308 307 306 305 304 303 302 300 299 298 297 296 296 295 294 294 293 293 292 292 292 291
99 97 95 93 92 90 88 87 85 83 79 70 59 45 29 14 2 354 347 342 338 335 332 330 328 326 325 323 321 320 319 318 318 318 317 317 316 315 315 314 313 312 311 310 309 308 307 306 305 304 303 302 301 300 299 298 297 296 295 295 295 294 294 294 294 294 293 293 293
101 99 97 95 91 88 84 80 75 68 58 45 32 18 8 359 352 347 342 338 335 333 331 329 327 326 324 323 321 320 319 318 318 317 316 316 315 314 313 312 311 310 309 309 307 306 305 303 302 301 300 300 299 298 298 297 297 297 296 296 297 297 297 297 297 297 297 297 296
97 95 92 88 83 77 71 63 54 44 33 23 13 5 359 352 347 343 339 337 335 333 331 329 328 327 325 323 321 320 319 317 315 314 313 312 311 310 309 308 307 306 306 306 305 304 303 301 301 300 299 299 299 298 298 298 298 299 299 299 299 299 299 299 299 299 299 299 299
87 84 79 74 68 61 53 44 35 27 19 11 5 359 353 349 345 342 340 338 336 333 331 330 328 326 324 322 320 319 316 315 313 312 311 309 308 307 306 305 304 304 304 304 303 303 302 302 301 301 301 301 301 301 301 301 301 301 301 301 301 301 300 300 299 299 299 299 298
74 70 64 58 51 45 38 31 24 17 11 6 0 356 351 348 345 342 340 337 335 333 331 328 326 324 322 320 318 316 315 313 312 311 310 309 308 307 306 305 305 304 304 304 304 304 304 304 304 304 304 303 303 303 303 303 303 302 302 301 301 301 300 300 299 298 298 297 296
61 57 51 45 39 33 27 21 16 11 6 1 357 352 349 346 344 341 338 336 333 331 328 326 324 322 320 318 317 316 314 313 313 312 311 310 310 309 309 308 308 308 308 308 307 307 307 307 306 306 305 305 304 304 304 303 303 302 301 301 301 300 300 299 298 298 297 296 295
51 46 41 36 31 26 21 16 11 6 2 357 353 349 346 343 340 338 335 333 331 329 327 325 323 322 320 319 318 317 316 315 314 314 313 312 312 312 312 311 311 311 311 310 310 309 308 307 306 305 305 304 303 303 302 302 301 300 300 300 300 300 300 299 299 298 297 296 296
43 39 35 30 25 20 15 11 6 1 356 351 348 345 342 339 337 335 333 332 330 328 326 325 324 322 321 320 320 319 318 317 316 315 315 314 313 313 312 311 311 311 311 310 309 308 307 306 305 304 303 302 302 301 301 300 300 300 300 300 300 300 300 300 299 298 297 295 293
37 33 29 25 20 15 10 5 360 355 351 347 344 342 340 338 336 334 333 331 329 328 326 325 324 323 322 321 320 319 318 317 316 315 314 313 312 311 310 310 309 309 308 308 307 306 305 304 304 303 302 301 301 301 300 300 300 300 301 301 301 300 300 298 296 293 290 287 285
32 27 23 18 13 8 3 358 354 351 348 346 344 342 340 338 336 334 332 331 329 327 326 324 323 322 321 319 318 317 316 315 314 313 312 311 310 309 308 308 307 307 306 306 306 305 305 304 303 303 302 302 301 301 301 301 301 301 301 301 300 298 296 292 288 285 282 280 279
25 20 16 11 6 1 358 354 352 350 348 346 344 342 340 338 336 333 331 330 328 326 324 323 321 320 318 317 316 315 314 313 312 311 310 309 309 308 308 308 307 307 307 307 307 306 305 305 304 304 303 303 303 303 303 302 302 302 301 300 298 296 293 290 288 286 284 284 284
18 13 8 4 0 357 355 353 351 349 347 344 342 340 337 335 333 331 329 327 325 324 322 320 319 318 317 315 314 313 312 312 311 311 310 310 310 310 310 310 309 310 309 309 309 308 308 307 306 306 305 305 305 304 304 303 303 302 300 299 298 297 295 293 291 290 289 289 289
11 7 3 360 357 355 353 351 349 346 344 341 339 336 334 332 330 328 326 324 323 321 320 319 318 317 316 316 315 314 314 314 313 313 313 313 313 313 313 313 312 312 312 312 311 310 310 309 308 307 307 306 306 305 304 303 302 301 300 299 299 299 297 295 294 293 293 293 292
6 3 360 357 355 353 351 348 346 343 340 338 335 333 331 329 327 325 324 323 322 321 320 319 319 318 318 318 317 317 317 316 316 316 316 316 315 315 315 315 314 313 313 312 312 311 310 309 309 308 308 307 306 306 305 304 303 302 301 301 301 300 298 298 297 296 296 296 296
Height
1439 1441 1442 1443 1444 1444 1445 1446 1447 1447 1448 1448 1449 1450 1450 1451 1452 1452 1452 1452 1452 1452 1453 1453 1453 1453 1453 1453 1453 1453 1453 1453 1453 1453 1453 1453 1453 1453 1453 1453 1453 1453 1453 1454 1454 1454 1454 1455 1455 1455 1454 1454 1455 1455 1455 1455 1455 1455 1455 1456 1456 1456 1457 1457 1458 1459 1459 1460 1460
1438 1439 1439 1440 1441 1442 1443 1444 1446 1446 1447 1447 1448 1449 1449 1450 1451 1451 1451 1451 1451 1451 1452 1452 1452 1452 1452 1451 1451 1451 1451 1451 1451 1451 1451 1450 1450 1450 1450 1451 1451 1451 1451 1452 1452 1452 1452 1452 1452 1452 1452 1452 1452 1453 1453 1453 1453 1453 1453 1454 1454 1454 1455 1455 1456 1457 1457 1458 1458
1435 1436 1437 1439 1440 1441 1442 1443 1445 1445 1446 1446 1447 1447 1448 1449 1449 1450 1450 1450 1450 1451 1451 1451 1451 1450 1450 1450 1450 1450 1450 1449 1449 1449 1448 1448 1448 1448 1448 1448 1449 1449 1449 1450 1450 1449 1449 1449 1449 1449 1449 1449 1450 1451 1451 1451 1452 1452 1452 1452 1452 1452 1452 1453 1454 1455 1455 1456 1456
1433 1435 1436 1438 1439 1440 1441 1442 1443 1444 1444 1445 1446 1446 1446 1447 1448 1448 1449 1449 1449 1450 1449 1449 1449 1449 1448 1448 1448 1448 1448 1447 1447 1447 1446 1446 1446 1446 1446 1446 1447 1447 1447 1448 1448 1448 1447 1447 1447 1447 1447 1448 1448 1449 1449 1450 1450 1451 1451 1451 1451 1450 1450 1451 1451 1452 1453 1453 1454
1432 1434 1436 1437 1438 1439 1440 1441 1442 1442 1443 1444 1444 1445 1446 1446 1446 1447 1448 1448 1448 1448 1448 1448 1448 1447 1447 1447 1447 1446 1446 1446 1446 1446 1446 1446 1445 1445 1445 1445 1445 1445 1445 1445 1446 1445 1445 1445 1445 1445 1446 1446 1446 1447 1447 1448 1448 1448 1449 1449 1449 1449 1449 1450 1450 1451 1452 1452 1453
1432 1433 1435 1436 1437 1438 1439 1440 1441 1441 1442 1443 1443 1444 1445 1445 1446 1446 1447 1447 1447 1447 1447 1447 1446 1446 1446 1446 1446 1446 1445 1445 1445 1446 1446 1445 1445 1444 1444 1444 1444 1443 1442 1442 1443 1442 1442 1442 1442 1442 1443 1444 1444 1445 1445 1445 1446 1446 1447 1447 1447 1448 1448 1449 1450 1451 1451 1452 1452
1431 1432 1434 1435 1436 1437 1438 1439 1440 1441 1441 1442 1443 1443 1444 1444 1445 1446 1446 1446 1446 1446 1446 1445 1445 1445 1445 1445 1445 1445 1444 1444 1444 1445 1445 1445 1444 1444 1443 1442 1441 1441 1440 1441 1441 1441 1441 1441 1441 1441 1441 1442 1442 1443 1443 1444 1444 1445 1445 1446 1446 1447 1448 1449 1449 1450 1451 1451 1452
1431 1432 1433 1434 1435 1436 1437 1438 1439 1440 1441 1441 1442 1443 1443 1444 1444 1444 1445 1445 1445 1444 1444 1445 1445 1445 1445 1444 1444 1444 1444 1444 1443 1443 1444 1444 1443 1443 1442 1441 1441 1440 1440 1440 1441 1441 1441 1441 1441 1442 1443 1443 1443 1443 1444 1444 1445 1445 1445 1446 1446 1446 1447 1448 1449 1450 1450 1451 1451
1431 1432 1433 1434 1435 1436 1436 1438 1439 1440 1440 1441 1441 1442 1442 1443 1443 1443 1443 1443 1443 1444 1444 1444 1444 1444 1444 1444 1444 1444 1444 1444 1443 1443 1443 1443 1443 1443 1442 1442 1441 1441 1441 1441 1441 1441 1442 1442 1442 1442 1443 1443 1444 1444 1444 1445 1445 1445 1446 1446 1446 1447 1447 1448 1449 1449 1450 1450 1451
1430 1431 1432 1433 1434 1435 1436 1437 1438 1439 1440 1440 1441 1441 1442 1442 1442 1442 1442 1443 1443 1443 1443 1444 1444 1444 1444 1444 1444 1444 1444 1443 1443 1443 1443 1443 1443 1443 1443 1442 1442 1442 1442 1442 1442 1442 1442 1442 1442 1442 1443 1443 1443 1443 1444 1444 1444 1445 1446 1446 1446 1447 1447 1448 1448 1449 1449 1449 1450
1429 1431 1431 1433 1434 1435 1436 1437 1438 1438 1439 1440 1440 1441 1441 1441 1442 1442 1442 1443 1443 1443 1443 1444 1444 1444 1444 1444 1444 1444 1444 1443 1443 1443 1443 1443 1443 1442 1442 1442 1442 1442 1442 1442 1442 1442 1442 1442 1442 1442 1442 1442 1442 1443 1443 1443 1443 1444 1444 1445 1445 1446 1446 1446 1447 1447 1447 1448 1448
1429 1430 1431 1432 1433 1434 1435 1436 1437 1438 1438 1439 1440 1440 1441 1441 1442 1442 1442 1443 1443 1443 1444 1444 1444 1444 1444 1444 1444 1444 1443 1443 1443 1443 1442 1442 1442 1442 1441 1441 1441 1441 1441 1441 1441 1441 1441 1441 1441 1441 1441 1441 1442 1442 1442 1442 1442 1442 1443 1443 1443 1443 1444 1445 1445 1445 1446 1446 1446
1429 1430 1431 1432 1433 1434 1435 1436 1437 1437 1438 1439 1440 1441 1441 1442 1442 1442 1443 1443 1444 1444 1444 1444 1444 1444 1444 1443 1443 1443 1442 1442 1442 1441 1441 1441 1441 1440 1440 1440 1440 1440 1440 1440 1440 1440 1440 1440 1440 1440 1440 1441 1441 1441 1441 1441 1441 1441 1441 1441 1441 1442 1442 1443 1444 1444 1445 1445 1446
1429 1430 1431 1432 1433 1434 1435 1436 1437 1438 1439 1440 1440 1441 1442 1442 1442 1443 1443 1443 1444 1444 1444 1444 1443 1443 1443 1442 1442 1442 1441 1441 1441 1441 1440 1440 1440 1440 1440 1440 1440 1440 1440 1440 1440 1440 1440 1440 1440 1440 1440 1440 1440 1440 1440 1440 1440 1440 1441 1441 1441 1441 1442 1443 1443 1444 1445 1445 1446
1429 1430 1431 1432 1433 1434 1435 1436 1437 1438 1439 1440 1441 1441 1442 1443 1443 1443 1443 1443 1443 1443 1443 1442 1442 1442 1442 1442 1441 1441 1441 1441 1441 1441 1441 1441 1440 1440 1440 1440 1440 1440 1440 1440 1440 1440 1440 1440 1440 1440 1440 1440 1440 1440 1440 1440 1441 1441 1441 1442 1442 1443 1443 1444 1444 1445 1445 1446 1446
1430 1431 1432 1433 1434 1435 1436 1436 1437 1438 1439 1440 1441 1441 1442 1443 1443 1443 1442 1442 1442 1442 1442 1442 1442 1442 1442 1442 1442 1442 1442 1442 1441 1441 1441 1441 1441 1441 1440 1440 1440 1440 1440 1440 1440 1439 1439 1439 1439 1439 1440 1440 1440 1440 1441 1441 1442 1442 1442 1443 1443 1443 1443 1444 1444 1445 1445 1445 1445
1431 1432 1433 1434 1435 1436 1437 1437 1438 1439 1440 1440 1441 1441 1442 1442 1442 1442 1441 1441 1441 1442 1442 1442 1443 1443 1443 1443 1442 1442 1442 1442 1442 1441 1441 1441 1441 1441 1441 1441 1440 1440 1440 1440 1440 1440 1440 1439 1439 1439 1439 1439 1440 1440 1441 1441 1441 1442 1442 1442 1442 1442 1443 1443 1443 1443 1443 1443 1443
1431 1432 1434 1435 1436 1436 1437 1438 1439 1439 1440 1440 1441 1441 1441 1441 1441 1441 1442 1442 1442 1443 1443 1443 1443 1443 1443 1443 1443 1442 1442 1442 1442 1442 1442 1441 1441 1441 1441 1441 1441 1440 1440 1440 1440 1440 1440 1440 1439 1439 1439 1439 1439 1439 1440 1440 1440 1441 1441 1441 1441 1441 1441 1442 1442 1442 1442 1442 1442
1432 1433 1435 1435 1436 1436 1437 1438 1438 1439 1439 1440 1440 1441 1441 1442 1442 1442 1443 1443 1443 1443 1443 1443 1443 1443 1443 1443 1443 1443 1443 1442 1442 1442 1442 1441 1441 1441 1441 1441 1441 1440 1440 1440 1440 1440 1439 1439 1439 1439 1439 1439 1438 1438 1438 1439 1439 1439 1440 1440 1440 1440 1441 1440 1440 1440 1440 1441 1440
1433 1434 1435 1436 1436 1436 1437 1438 1439 1439 1440 1441 1442 1442 1443 1443 1443 1443 1443 1443 1443 1444 1444 1444 1444 1444 1444 1443 1443 1443 1443 1442 1442 1442 1442 1441 1441 1441 1441 1441 1440 1440 1440 1440 1439 1439 1439 1438 1438 1438 1438 1438 1438 1438 1438 1438 1438 1438 1439 1439 1439 1439 1439 1439 1439 1439 1439 1439 1439
1434 1435 1436 1436 1436 1437 1438 1439 1440 1441 1442 1443 1444 1444 1444 1444 1444 1444 1444 1444 1444 1444 1444 1444 1444 1444 1444 1443 1443 1443 1443 1442 1442 1442 1441 1441 1441 1441 1441 1440 1440 1440 1439 1439 1439 1438 1438 1438 1438 1437 1437 1437 1437 1437 1437 1437 1437 1438 1438 1438 1438 1438 1438 1438 1438 1438 1438 1438 1438
1435 1436 1436 1437 1438 1439 1440 1441 1442 1443 1444 1444 1444 1444 1444 1444 1444 1444 1444 1444 1444 1444 1444 1444 1444 1444 1443 1443 1443 1443 1442 1442 1442 1441 1441 1441 1441 1441 1440 1440 1440 1439 1439 1439 1438 1438 1438 1438 1437 1437 1437 1437 1437 1437 1437 1437 1437 1437 1437 1437 1437 1437 1437 1437 1436 1436 1436 1436 1436
1436 1437 1438 1439 1440 1441 1442 1443 1444 1444 1444 1444 1444 1444 1444 1444 1444 1444 1444 1444 1444 1444 1444 1444 1444 1443 1443 1443 1442 1442 1442 1442 1441 1441 1441 1441 1441 1440 1440 1440 1439 1439 1439 1438 1438 1438 1437 1437 1437 1437 1437 1436 1436 1436 1436 1436 1436 1436 1436 1436 1436 1435 1435 1435 1434 1434 1434 1433 1433
1438 1439 1441 1441 1442 1443 1443 1444 1444 1444 1444 1444 1444 1444 1444 1445 1444 1444 1444 1444 1444 1444 1444 1443 1443 1443 1443 1442 1442 1442 1442 1441 1441 1441 1441 1441 1440 1440 1440 1439 1439 1439 1438 1438 1437 1437 1437 1436 1436 1436 1436 1436 1436 1435 1435 1435 1435 1434 1434 1434 1434 1433 1433 1433 1432 1432 1431 1431 1431
1441 1441 1442 1443 1443 1444 1444 1444 1444 1444 1444 1444 1444 1445 1445 1445 1444 1444 1444 1444 1444 1444 1444 1443 1443 1443 1443 1442 1442 1442 1441 1441 1441 1441 1440 1440 1439 1439 1439 1438 1438 1438 1437 1437 1436 1436 1436 1436 1435 1435 1435 1435 1434 1434 1434 1433 1433 1433 1432 1432 1432 1432 1431 1431 1431 1431 1430 1430 1429
1442 1443 1443 1444 1444 1444 1444 1445 1445 1445 1445 1445 1445 1445 1445 1445 1445 1445 1444 1444 1444 1444 1444 1443 1443 1443 1442 1442 1441 1441 1441 1441 1440 1440 1439 1439 1438 1438 1438 1437 1437 1436 1436 1436 1436 1435 1435 1435 1434 1434 1434 1433 1433 1433 1432 1432 1432 1431 1431 1431 1431 1431 1430 1430 1430 1429 1429 1428 1428
1444 1444 1444 1445 1445 1445 1445 1445 1445 1445 1445 1445 1445 1445 1445 1445 1445 1445 1444 1444 1444 1444 1443 1443 1442 1442 1441 1441 1441 1440 1440 1440 1439 1439 1438 1438 1437 1437 1437 1436 1436 1436 1436 1435 1435 1434 1434 1434 1433 1433 1432 1432 1432 1431 1431 1431 1431 1430 1430 1430 1429 1429 1429 1428 1428 1428 1427 1427 1426
1445 1445 1445 1446 1446 1446 1445 1445 1445 1445 1445 1445 1445 1445 1445 1445 1445 1444 1444 1444 1443 1443 1443 1442 1442 1441 1441 1441 1440 1440 1439 1439 1439 1438 1438 1437 1437 1436 1436 1436 1435 1435 1435 1434 1434 1434 1433 1433 1432 1432 1431 1431 1431 1431 1430 1430 1429 1429 1429 1428 1428 1427 1427 1426 1426 1426 1426 1425 1424
1446 1446 1446 1446 1446 1446 1446 1446 1446 1445 1445 1445 1445 1445 1445 1445 1444 1444 1444 1443 1443 1442 1442 1441 1441 1441 1440 1440 1440 1439 1439 1438 1438 1438 1437 1437 1437 1436 1436 1435 1435 1434 1434 1434 1433 1433 1432 1432 1432 1431 1431 1430 1430 1429 1429 1428 1428 1427 1427 1426 1426 1425 1425 1424 1424 1423 1423 1422 1422
1446 1446 1446 1446 1446 1446 1446 1446 1446 1445 1445 1445 1445 1445 1445 1444 1444 1444 1443 1443 1442 1442 1441 1441 1441 1440 1440 1440 1439 1439 1438 1438 1438 1437 1437 1437 1436 1436 1436 1435 1435 1434 1434 1433 1433 1432 1432 1431 1431 1430 1430 1429 1428 1428 1427 1426 1426 1425 1425 1424 1423 1423 1422 1421 1421 1420 1420 1419 1419
1446 1446 1446 1446 1446 1446 1446 1446 1445 1445 1445 1445 1445 1445 1444 1444 1444 1443 1443 1442 1442 1441 1441 1441 1440 1440 1440 1439 1439 1438 1438 1438 1437 1437 1436 1436 1436 1435 1435 1434 1434 1433 1433 1432 1432 1431 1431 1430 1429 1428 1428 1427 1426 1426 1425 1424 1423 1423 1422 1421 1421 1421 1420 1419 1419 1418 1417 1417 1416
1446 1446 1446 1446 1446 1446 1446 1446 1445 1445 1445 1445 1445 1444 1444 1444 1443 1443 1442 1442 1441 1441 1441 1441 1440 1440 1439 1439 1438 1438 1438 1437 1437 1436 1436 1436 1435 1434 1434 1433 1433 1432 1431 1431 1430 1430 1429 1428 1427 1426 1425 1424 1424 1423 1422 1421 1421 1420 1420 1419 1419 1418 1418 1417 1416 1416 1416 1415 1414
1446 1446 1446 1446 1446 1446 1446 1446 1446 1445 1445 1445 1445 1444 1444 1443 1443 1443 1442 1442 1441 1441 1441 1440 1440 1439 1439 1438 1438 1437 1437 1436 1436 1435 1435 1434 1434 1433 1432 1431 1431 1430 1430 1429 1428 1427 1426 1426 1425 1424 1423 1422 1421 1421 1420 1419 1419 1418 1417 1417 1416 1416 1416 1415 1415 1414 1413 1413 1412
1446 1446 1446 1446 1446 1446 1446 1446 1446 1445 1445 1445 1444 1444 1444 1443 1443 1442 1442 1441 1441 1441 1440 1440 1439 1439 1438 1437 1437 1436 1436 1435 1434 1434 1433 1432 1432 1431 1430 1430 1429 1428 1427 1426 1426 1425 1424 1423 1422 1422 1421 1420 1419 1419 1418 1417 1417 1416 1416 1415 1414 1414 1413 1413 1412 1411 1411 1410 1410
1447 1447 1447 1446 1446 1446 1446 1446 1446 1446 1445 1445 1444 1444 1443 1443 1442 1442 1441 1441 1440 1440 1439 1439 1438 1437 1437 1436 1436 1435 1434 1433 1433 1432 1431 1431 1430 1429 1429 1428 1427 1426 1426 1425 1424 1423 1422 1422 1421 1420 1419 1418 1417 1416 1416 1415 1415 1414 1413 1413 1412 1411 1411 1411 1410 1409 1409 1408 1408
1447 1447 1447 1447 1447 1446 1446 1446 1446 1445 1445 1444 1444 1443 1443 1442 1441 1441 1441 1440 1439 1439 1438 1437 1437 1436 1436 1435 1434 1434 1433 1432 1431 1430 1430 1429 1428 1428 1427 1426 1426 1425 1424 1424 1423 1422 1421 1420 1419 1418 1417 1416 1415 1415 1414 1413 1412 1411 1411 1410 1410 1409 1409 1408 1408 1407 1407 1406 1406
1448 1448 1447 1447 1447 1446 1446 1446 1446 1445 1444 1444 1443 1442 1442 1441 1441 1440 1439 1439 1438 1437 1437 1436 1436 1435 1434 1434 1433 1432 1431 1431 1430 1429 1428 1427 1427 1426 1426 1425 1424 1424 1423 1422 1421 1420 1419 1418 1417 1416 1415 1414 1413 1412 1411 1411 1410 1409 1409 1408 1408 1407 1407 1407 1406 1406 1405 1405 1404
1448 1448 1447 1447 1447 1446 1446 1445 1445 1444 1443 1443 1442 1441 1441 1440 1439 1439 1438 1437 1437 1436 1436 1435 1434 1434 1433 1432 1432 1431 1431 1430 1429 1428 1427 1426 1426 1425 1424 1423 1422 1422 1421 1420 1419 1418 1417 1416 1415 1414 1413 1412 1411 1410 1409 1408 1408 1407 1407 1406 1406 1406 1405 1405 1404 1404 1403 1402 1402
1448 1447 1447 1447 1446 1446 1445 1444 1443 1443 1442 1441 1441 1440 1440 1439 1438 1438 1437 1436 1436 1435 1434 1434 1433 1432 1432 1431 1430 1430 1429 1428 1427 1426 1426 1425 1424 1423 1422 1421 1420 1420 1419 1418 1417 1416 1415 1414 1413 1412 1411 1410 1409 1408 1407 1406 1406 1405 1405 1404 1404 1403 1403 1403 1402 1401 1401 1400 1400
1448 1447 1446 1446 1445 1444 1444 1443 1442 1441 1441 1441 1440 1439 1439 1438 1437 1437 1436 1436 1435 1434 1433 1433 1432 1431 1430 1430 1429 1428 1427 1426 1426 1425 1424 1423 1421 1421 1420 1419 1418 1417 1416 1416 1415 1414 1413 1412 1411 1410 1409 1408 1407 1406 1405 1405 1404 1403 1403 1402 1402 1401 1401 1401 1400 1400 1399 1398 1398
1447 1446 1445 1444 1444 1443 1443 1442 1441 1441 1440 1440 1439 1439 1438 1437 1437 1436 1436 1435 1434 1433 1432 1431 1431 1430 1429 1428 1427 1426 1425 1424 1423 1423 1421 1421 1420 1419 1418 1417 1416 1415 1415 1414 1413 1412 1411 1411 1410 1408 1407 1406 1405 1404 1404 1403 1402 1401 1401 1401 1401 1400 1399 1399 1398 1398 1397 1397 1396